Flag for Iran Weather past 2 weeks in Esfahãn, Iran

Now
61 °F

Passing clouds.


Feels Like: 61 °F
Forecast: 53 / 79 °F
Wind: 5 mph from Northwest

Location: Esfahan

Current Time: Apr 28, 2015 at 3:07:33 AM

Latest Report: Apr 28, 2015 at 2:30 AM


Visibility: 4 mi

Pressure: 30.12 "Hg

Humidity: 34%

Dew point: 32 °F

Location of EsfahãnLocation

Historic Weather in Esfahãn — Graph

°F

Esfahãn temperature yesterday

Maximum temperature yesterday: 82 °F (at 4:30 PM)
Minimum temperature yesterday: 36 °F (at 5:30 AM)
Average temperature yesterday: 63 °F

Past Weeks' High & Low Weather Summary

 TemperatureHumidityPressure
High86 °F (Apr 24, 2:30 PM)100% (Apr 18, 3:00 AM)30.30 "Hg (Apr 18, 3:00 AM)
Low30 °F (Apr 15, 6:30 AM)1% (Apr 25, 1:00 PM)29.89 "Hg (Apr 18, 4:00 PM)
Average62 °F26%30.08 "Hg
* Reported Apr 13 1:30 AM — Apr 28 1:30 AM, Esfahãn, Weather by CustomWeather, © 2015

Note: Actual official high and low records may vary slightly from our data, if they occured in-between our weather recording intervals... More about our weather records

Advertising

Esfahãn weather history for previous 24 hours

 ConditionsComfort  
Time TempWeatherWind HumidityBarometerVisibility
1:30 AM
Tue, Apr 28
61 °FPassing clouds.7 mph31%30.12 "Hg4 mi
1:00 AM63 °FPassing clouds.7 mph24%30.12 "Hg4 mi
12:30 AM63 °FPassing clouds.5 mph27%30.12 "Hg5 mi
12:00 AM66 °FPassing clouds.7 mph21%30.12 "Hg5 mi
11:30 PM
Mon, Apr 27
66 °FPassing clouds.7 mph21%30.12 "Hg4 mi
11:00 PM68 °FPassing clouds.5 mph23%30.12 "Hg3 mi
10:30 PM70 °FPassing clouds.7 mph21%30.12 "Hg3 mi
10:00 PM72 °FPassing clouds.7 mph17%30.15 "Hg3 mi
9:30 PM72 °FPassing clouds.7 mph16%30.12 "Hg3 mi
9:00 PM72 °FPartly sunny.No wind16%30.12 "Hg3 mi
8:30 PM72 °FPartly sunny.5 mph16%30.12 "Hg3 mi
8:00 PM73 °FScattered clouds.7 mph15%30.12 "Hg2 mi
7:30 PM75 °FScattered clouds.14 mph14%30.09 "Hg3 mi
7:00 PM77 °FBroken clouds.14 mph13%30.09 "Hg4 mi
6:30 PM77 °FScattered clouds.12 mph15%30.09 "Hg4 mi
6:00 PM77 °FScattered clouds.18 mph15%30.09 "Hg4 mi
5:30 PM81 °FScattered clouds.16 mph11%30.07 "Hg4 mi
5:00 PM82 °FScattered clouds.No wind9%30.07 "Hg4 mi
4:30 PM82 °FScattered clouds.5 mph9%30.07 "Hg4 mi
4:00 PM81 °FClear.5 mph10%30.07 "Hg5 mi
3:30 PM81 °FClear.7 mph9%30.09 "Hg5 mi
3:00 PM81 °FClear.9 mph9%30.09 "Hg5 mi
2:30 PM79 °FClear.7 mph8%30.12 "Hg5 mi
2:00 PM77 °FClear.7 mph8%30.15 "Hg4 mi
1:30 PM77 °FClear.9 mph7%30.15 "Hg5 mi
1:00 PM75 °FClear.7 mph8%30.18 "Hg5 mi
12:30 PM73 °FClear.5 mph9%30.18 "Hg5 mi
12:00 PM72 °FSunny.No wind10%30.21 "Hg10 mi
11:30 AM70 °FSunny.7 mph10%30.21 "Hg10 mi
11:00 AM68 °FSunny.7 mph11%30.21 "Hg10 mi
10:30 AM64 °FSunny.No wind14%30.24 "Hg10 mi
10:00 AM64 °FSunny.5 mph14%30.24 "Hg10 mi
9:30 AM59 °FSunny.5 mph18%30.21 "Hg10 mi
9:00 AM57 °FSunny.5 mph21%30.21 "Hg10 mi
8:30 AM54 °FSunny.7 mph24%30.21 "Hg10 mi
8:00 AM48 °FSunny.5 mph29%30.21 "Hg5 mi
7:30 AM37 °FClear.No wind38%30.21 "Hg4 mi
7:00 AM39 °FClear.5 mph39%30.18 "Hg4 mi
6:30 AM39 °FClear.5 mph39%30.18 "Hg5 mi
6:00 AM41 °FClear.7 mph39%30.15 "Hg10 mi
5:30 AM36 °FClear.7 mph35%30.15 "Hg10 mi
5:00 AM39 °FClear.5 mph33%30.15 "Hg10 mi
4:30 AM43 °FClear.5 mph31%30.15 "Hg10 mi
4:00 AM45 °FClear.No wind29%30.15 "Hg10 mi
3:30 AM45 °FClear.No wind29%30.15 "Hg10 mi
3:00 AM46 °FClear.5 mph29%30.15 "Hg10 mi
Weather by CustomWeather, © 2015

See weather overviewHow to use our weather pages